Weather History for KSAV - July, 2013

Change the Weather History Date:

Tuesday, July 30, 2013

  Actual Average Record
Temperature  
Mean Temperature 84 °F 83 °F  
Max Temperature 94 °F 92 °F 101 °F (1896)
Min Temperature 74 °F 73 °F 66 °F (1954)
Degree Days  
Heating Degree Days 0 0  
Month to date heating degree days 0 0  
Since 1 June heating degree days 0 0  
Since 1 July heating degree days 0 0  
Cooling Degree Days 19 18  
Month to date cooling degree days 490 532  
Year to date cooling degree days 1316 1381  
Since 1 June cooling degree days 958 978  
Growing Degree Days 33 (Base 50)    
Moisture  
Dew Point 73 °F    
Average Humidity 70    
Maximum Humidity 94    
Minimum Humidity 46    
Precipitation  
Precipitation 0.04 in 0.21 in 3.14 in (1991)
Month to date precipitation 9.36 5.39  
Year to date precipitation 37.18 27.60  
Sea Level Pressure  
Sea Level Pressure 30.14 in    
Wind  
Wind Speed 4 mph (SW)    
Max Wind Speed 14 mph    
Max Gust Speed 20 mph    
Visibility 10 miles    
Events Rain    
T = Trace of Precipitation, MM = Missing Value Source: NWS Daily Summary

Daily Weather History Graph

Daily Weather History Graph

Search for Another Location

Airport or City:

Trip Planner

Search our weather history database for the weather conditions in past years. The results will help you decide how hot, cold, wet, or windy it might be!

Date:

Astronomy

Jul. 30, 2013 Rise Set
Actual Time 6:38 AM EDT 8:23 PM EDT
Civil Twilight 6:11 AM EDT 8:50 PM EDT
Nautical Twilight 5:39 AM EDT 9:22 PM EDT
Astronomical Twilight 5:05 AM EDT 9:56 PM EDT
Moon 12:52 AM EDT 2:43 PM EDT
Length of Visible Light 14h 38m
Length of Day
13h 44m
Last Quarter, 41% of the Moon is Illuminated
Jul 30
Last Quarter
Aug 6
New
Aug 14
First Quarter
Aug 20
Full
Aug 28
Last Quarter

Hourly Weather History & Observations

Time (EDT) Temp. Heat Index Dew Point Humidity Pressure Visibility Wind Dir Wind Speed Gust Speed Precip Events Conditions
12:27 AM 75.2 °F - 71.6 °F 89% 30.17 in 10.0 mi SSW 3.5 mph - N/A   Partly Cloudy
12:53 AM 75.0 °F - 72.0 °F 90% 30.17 in 9.0 mi SW 4.6 mph - 0.00 in Rain Light Rain
1:53 AM 75.0 °F - 72.0 °F 90% 30.14 in 10.0 mi Calm Calm - 0.04 in   Clear
2:53 AM 75.0 °F - 72.0 °F 90% 30.13 in 10.0 mi Calm Calm - N/A   Clear
3:53 AM 75.0 °F - 73.0 °F 94% 30.12 in 10.0 mi Calm Calm - N/A   Clear
4:53 AM 73.9 °F - 72.0 °F 93% 30.12 in 10.0 mi SE 3.5 mph - N/A   Scattered Clouds
5:53 AM 75.0 °F - 72.0 °F 90% 30.13 in 10.0 mi SSE 3.5 mph - N/A   Mostly Cloudy
6:53 AM 75.0 °F - 73.0 °F 94% 30.16 in 9.0 mi SW 5.8 mph - N/A   Mostly Cloudy
7:53 AM 75.9 °F - 73.0 °F 91% 30.17 in 9.0 mi WSW 5.8 mph - N/A   Scattered Clouds
8:53 AM 79.0 °F - 73.9 °F 84% 30.18 in 10.0 mi WSW 6.9 mph - N/A   Scattered Clouds
9:53 AM 81.0 °F 86.2 °F 73.9 °F 79% 30.18 in 10.0 mi West 4.6 mph - N/A   Scattered Clouds
10:53 AM 84.0 °F 91.9 °F 75.0 °F 74% 30.18 in 10.0 mi WNW 5.8 mph - N/A   Scattered Clouds
11:53 AM 87.1 °F 96.3 °F 75.0 °F 67% 30.17 in 10.0 mi NNW 5.8 mph - N/A   Scattered Clouds
12:53 PM 90.0 °F 100.2 °F 75.0 °F 61% 30.16 in 10.0 mi Calm Calm - N/A   Scattered Clouds
1:53 PM 90.0 °F 97.9 °F 73.0 °F 57% 30.15 in 10.0 mi Calm Calm - N/A   Mostly Cloudy
2:53 PM 91.9 °F 100.7 °F 73.0 °F 54% 30.13 in 10.0 mi Variable 3.5 mph - N/A   Scattered Clouds
3:53 PM 93.9 °F 102.1 °F 72.0 °F 49% 30.11 in 10.0 mi NNW 6.9 mph - N/A   Scattered Clouds
4:53 PM 93.0 °F 97.9 °F 69.1 °F 45% 30.10 in 10.0 mi Calm Calm - N/A   Mostly Cloudy
5:53 PM 89.1 °F 100.2 °F 75.9 °F 65% 30.09 in 10.0 mi SE 9.2 mph - N/A   Mostly Cloudy
6:53 PM 87.1 °F 96.3 °F 75.0 °F 67% 30.11 in 10.0 mi SSE 8.1 mph - N/A   Mostly Cloudy
7:53 PM 84.9 °F 94.1 °F 75.9 °F 74% 30.13 in 10.0 mi South 9.2 mph - N/A   Mostly Cloudy
8:53 PM 82.9 °F 90.8 °F 75.9 °F 79% 30.13 in 10.0 mi South 8.1 mph - N/A   Mostly Cloudy
9:53 PM 80.1 °F 84.5 °F 73.9 °F 81% 30.14 in 10.0 mi SSW 3.5 mph - N/A   Scattered Clouds
10:53 PM 79.0 °F - 73.9 °F 84% 30.15 in 10.0 mi SW 4.6 mph - N/A   Scattered Clouds
11:53 PM 78.1 °F - 73.0 °F 84% 30.14 in 10.0 mi SW 3.5 mph - N/A   Scattered Clouds